Location: Newark
(23.3970°S, 47.6010°W)
Time: 18:31:43
(UTC+00:00)

deb Explorer IX - Pass Details

Date: 18 February 2020
Orbit: 547 x 1100 km, 38.8° (Epoch: 02 April)

Event Time Altitude Azimuth Distance (km) Brightness Sun altitude
Rises 08:15:07 0° 233° (SW) 3,814 ? -10.7°
Reaches altitude 10° 08:18:06 10° 227° (SW) 2,795 ? -10.1°
Maximum altitude 08:24:34 47° 155° (SSE) 1,207 ? -8.7°
Drops below altitude 10° 08:30:09 10° 81° (E) 2,417 ? -7.4°
Sets 08:32:34 0° 75° (ENE) 3,257 ? -6.9°
